timestamp,wind_dir_avg,wind_spd_avg,wind_spd_max_dir,wind_spd_gust,battery_voltage,lat,long
2023-04-27 00:04:00+00:00,21.0,6.08,25.0,6.86,12.57,47.59359,-54.27349
2023-04-27 00:14:00+00:00,19.0,5.28,20.0,5.82,12.33,47.59359,-54.27349
2023-04-27 00:24:00+00:00,20.0,6.0,22.0,6.74,12.33,47.59359,-54.27349
2023-04-27 00:34:00+00:00,23.0,6.23,19.0,7.46,12.33,47.59359,-54.27349
2023-04-27 00:44:00+00:00,43.0,4.62,41.0,5.34,12.33,47.59359,-54.27349
2023-04-27 00:54:00+00:00,31.0,6.73,32.0,8.42,12.33,47.59359,-54.27349
2023-04-27 01:04:00+00:00,45.0,7.95,57.0,9.63,12.33,47.59359,-54.27349
2023-04-27 01:14:00+00:00,35.0,6.3,30.0,7.35,12.25,47.59359,-54.27349
2023-04-27 01:24:00+00:00,40.0,6.12,37.0,7.41,12.25,47.59359,-54.27349
2023-04-27 01:34:00+00:00,41.0,5.83,44.0,6.4,12.25,47.59359,-54.27349
2023-04-27 01:44:00+00:00,38.0,5.46,36.0,5.88,12.25,47.59359,-54.27349
2023-04-27 01:54:00+00:00,26.0,4.72,31.0,5.39,12.25,47.59359,-54.27349
2023-04-27 02:04:00+00:00,19.0,5.15,10.0,6.88,12.25,47.59359,-54.27349
2023-04-27 02:14:00+00:00,22.0,8.71,25.0,9.62,12.25,47.59359,-54.27349
2023-04-27 02:24:00+00:00,28.0,9.36,40.0,11.01,12.25,47.59359,-54.27349
2023-04-27 02:34:00+00:00,17.0,7.28,27.0,8.45,12.25,47.59359,-54.27349
2023-04-27 02:44:00+00:00,3.0,7.16,2.0,8.67,12.25,47.59359,-54.27349
2023-04-27 02:54:00+00:00,5.0,5.96,10.0,6.85,12.25,47.59359,-54.27349
2023-04-27 03:04:00+00:00,0.0,6.89,3.0,7.59,12.25,47.59359,-54.27349
2023-04-27 03:14:00+00:00,2.0,7.1,2.0,8.07,12.25,47.59359,-54.27349
2023-04-27 03:24:00+00:00,5.0,6.92,4.0,7.92,12.25,47.59359,-54.27349
2023-04-27 03:34:00+00:00,4.0,6.6,3.0,7.4,12.25,47.59359,-54.27349
2023-04-27 03:44:00+00:00,8.0,5.7,13.0,6.71,12.25,47.59359,-54.27349
2023-04-27 03:54:00+00:00,358.0,5.99,0.0,6.68,12.25,47.59359,-54.27349
2023-04-27 04:04:00+00:00,359.0,5.89,358.0,6.95,12.25,47.59359,-54.27349
2023-04-27 04:14:00+00:00,358.0,6.26,357.0,6.88,12.25,47.59359,-54.27349
2023-04-27 04:24:00+00:00,5.0,6.07,3.0,7.04,12.25,47.59359,-54.27349
2023-04-27 04:34:00+00:00,359.0,6.44,358.0,6.96,12.25,47.59359,-54.27349
2023-04-27 04:44:00+00:00,4.0,6.73,5.0,7.81,12.25,47.59359,-54.27349
2023-04-27 04:54:00+00:00,0.0,6.77,5.0,7.77,12.25,47.59359,-54.27349
2023-04-27 05:04:00+00:00,357.0,7.21,357.0,7.92,12.25,47.59359,-54.27349
2023-04-27 05:14:00+00:00,358.0,5.89,358.0,6.56,12.17,47.59359,-54.27349
2023-04-27 05:24:00+00:00,0.0,6.39,0.0,7.07,12.17,47.59359,-54.27349
2023-04-27 05:34:00+00:00,4.0,5.43,7.0,6.07,12.17,47.59359,-54.27349
2023-04-27 05:44:00+00:00,8.0,5.38,6.0,6.72,12.17,47.59359,-54.27349
2023-04-27 05:54:00+00:00,11.0,5.7,9.0,6.88,12.17,47.59359,-54.27349
2023-04-27 06:04:00+00:00,5.0,6.2,4.0,7.28,12.17,47.59359,-54.27349
2023-04-27 06:14:00+00:00,9.0,5.42,10.0,6.26,12.17,47.59359,-54.27349
2023-04-27 06:24:00+00:00,9.0,5.25,14.0,6.23,12.17,47.59359,-54.27349
2023-04-27 06:34:00+00:00,10.0,5.43,11.0,6.43,12.17,47.59359,-54.27349
2023-04-27 06:44:00+00:00,11.0,4.78,13.0,6.05,12.17,47.59359,-54.27349
2023-04-27 06:54:00+00:00,12.0,4.78,14.0,5.72,12.17,47.59359,-54.27349
2023-04-27 07:04:00+00:00,4.0,6.34,1.0,7.09,12.17,47.59359,-54.27349
2023-04-27 07:14:01+00:00,1.0,6.67,359.0,8.03,12.17,47.59359,-54.27349
2023-04-27 07:24:01+00:00,359.0,6.51,0.0,6.97,12.17,47.59359,-54.27349
2023-04-27 07:34:01+00:00,358.0,6.77,0.0,8.01,12.17,47.59359,-54.27349
2023-04-27 07:44:01+00:00,356.0,5.75,357.0,6.76,12.17,47.59359,-54.27349
2023-04-27 07:54:01+00:00,350.0,5.45,354.0,6.31,12.17,47.59359,-54.27349
2023-04-27 08:04:01+00:00,346.0,5.37,349.0,6.35,12.17,47.59359,-54.27349
2023-04-27 08:14:01+00:00,354.0,6.98,6.0,8.2,12.09,47.59359,-54.27349
2023-04-27 08:24:01+00:00,350.0,6.17,352.0,6.88,12.09,47.59359,-54.27349
2023-04-27 08:34:01+00:00,348.0,6.14,346.0,7.13,12.09,47.59359,-54.27349
2023-04-27 08:44:01+00:00,347.0,6.16,342.0,7.21,12.09,47.59359,-54.27349
2023-04-27 08:54:01+00:00,355.0,5.78,356.0,6.46,12.09,47.59359,-54.27349
2023-04-27 09:04:01+00:00,353.0,6.71,357.0,7.55,12.09,47.59359,-54.27349
2023-04-27 09:14:01+00:00,349.0,5.97,347.0,6.57,12.09,47.59359,-54.27349
2023-04-27 09:24:01+00:00,1.0,6.13,5.0,7.32,12.09,47.59359,-54.27349
2023-04-27 09:34:01+00:00,7.0,6.78,19.0,8.53,12.09,47.59359,-54.27349
2023-04-27 09:44:01+00:00,8.0,6.79,7.0,7.54,12.09,47.59359,-54.27349
2023-04-27 09:54:01+00:00,357.0,7.1,352.0,8.16,12.09,47.59359,-54.27349
2023-04-27 10:04:01+00:00,1.0,6.24,345.0,7.0,12.09,47.59359,-54.27349
2023-04-27 10:14:01+00:00,10.0,5.86,27.0,7.42,12.25,47.59359,-54.27349
2023-04-27 10:24:01+00:00,18.0,6.44,33.0,8.14,12.25,47.59359,-54.27349
2023-04-27 10:34:01+00:00,8.0,6.64,18.0,7.71,12.25,47.59359,-54.27349
2023-04-27 10:44:01+00:00,29.0,7.51,29.0,8.88,12.25,47.59359,-54.27349
2023-04-27 10:54:01+00:00,41.0,6.89,53.0,8.67,12.25,47.59359,-54.27349
2023-04-27 11:04:01+00:00,40.0,6.17,37.0,6.76,12.25,47.59359,-54.27349
2023-04-27 11:14:01+00:00,39.0,5.92,39.0,6.4,13.6,47.59359,-54.27349
2023-04-27 11:24:01+00:00,37.0,5.72,35.0,6.25,13.6,47.59359,-54.27349
2023-04-27 11:34:01+00:00,29.0,5.93,34.0,6.66,13.6,47.59359,-54.27349
2023-04-27 11:44:01+00:00,29.0,5.9,32.0,6.52,13.6,47.59359,-54.27349
2023-04-27 11:54:01+00:00,30.0,4.58,32.0,5.02,13.6,47.59359,-54.27349
2023-04-27 12:04:01+00:00,49.0,4.99,49.0,5.28,13.6,47.59359,-54.27349
2023-04-27 12:14:00+00:00,49.0,5.23,48.0,5.59,13.68,47.59359,-54.27349
2023-04-27 12:24:00+00:00,44.0,5.46,42.0,6.07,13.68,47.59359,-54.27349
2023-04-27 12:34:00+00:00,37.0,7.03,42.0,7.78,13.68,47.59359,-54.27349
2023-04-27 12:44:00+00:00,38.0,6.46,32.0,7.71,13.68,47.59359,-54.27349
2023-04-27 12:54:00+00:00,32.0,6.05,30.0,6.72,13.68,47.59359,-54.27349
2023-04-27 13:04:00+00:00,31.0,5.66,35.0,6.29,13.68,47.59359,-54.27349
2023-04-27 13:14:00+00:00,39.0,5.62,37.0,6.31,13.6,47.59359,-54.27349
2023-04-27 13:24:00+00:00,37.0,5.8,38.0,6.35,13.6,47.59359,-54.27349
2023-04-27 13:34:00+00:00,52.0,4.2,53.0,4.64,13.6,47.59359,-54.27349
2023-04-27 13:44:00+00:00,52.0,5.14,47.0,5.49,13.6,47.59359,-54.27349
2023-04-27 13:54:00+00:00,52.0,5.41,51.0,5.93,13.6,47.59359,-54.27349
2023-04-27 14:04:00+00:00,58.0,7.01,67.0,10.32,13.6,47.59359,-54.27349
2023-04-27 14:14:00+00:00,49.0,5.41,47.0,5.96,13.84,47.59359,-54.27349
2023-04-27 14:24:00+00:00,52.0,5.08,51.0,5.52,13.84,47.59359,-54.27349
2023-04-27 14:34:00+00:00,50.0,5.68,62.0,8.23,13.84,47.59359,-54.27349
2023-04-27 14:44:00+00:00,57.0,7.25,65.0,9.37,13.84,47.59359,-54.27349
2023-04-27 14:54:00+00:00,50.0,5.67,52.0,6.16,13.84,47.59359,-54.27349
2023-04-27 15:04:00+00:00,45.0,5.62,47.0,5.93,13.84,47.59359,-54.27349
2023-04-27 15:14:00+00:00,52.0,4.52,63.0,4.97,14.16,47.59359,-54.27349
2023-04-27 15:24:00+00:00,65.0,3.33,64.0,3.76,14.16,47.59359,-54.27349
2023-04-27 15:34:00+00:00,66.0,3.22,58.0,4.39,14.16,47.59359,-54.27349
2023-04-27 15:44:00+00:00,75.0,2.84,81.0,4.63,14.16,47.59359,-54.27349
2023-04-27 15:54:00+00:00,106.0,1.39,120.0,2.43,14.16,47.59359,-54.27349
2023-04-27 16:04:00+00:00,74.0,3.27,73.0,3.85,14.16,47.59359,-54.27349
2023-04-27 17:14:00+00:00,65.0,3.54,63.0,4.03,14.32,47.59359,-54.27349
2023-04-27 17:24:00+00:00,71.0,3.64,70.0,3.99,14.32,47.59359,-54.27349
2023-04-27 17:34:00+00:00,62.0,2.71,62.0,3.11,14.32,47.59359,-54.27349
2023-04-27 17:44:00+00:00,56.0,2.49,52.0,3.08,14.32,47.59359,-54.27349
2023-04-27 17:54:00+00:00,69.0,4.04,72.0,4.46,14.32,47.59359,-54.27349
2023-04-27 18:04:00+00:00,66.0,4.4,67.0,4.6,14.32,47.59359,-54.27349
2023-04-27 18:14:00+00:00,68.0,3.76,69.0,3.99,13.68,47.59359,-54.27349
2023-04-27 18:24:00+00:00,67.0,2.53,70.0,2.81,13.68,47.59359,-54.27349
2023-04-27 18:34:00+00:00,58.0,2.1,61.0,2.54,13.68,47.59359,-54.27349
2023-04-27 18:44:00+00:00,274.0,0.69,276.0,0.97,13.68,47.59359,-54.27349
2023-04-27 18:54:00+00:00,231.0,1.68,235.0,1.82,13.68,47.59359,-54.27349
2023-04-27 19:04:00+00:00,140.0,0.44,142.0,0.62,13.68,47.59359,-54.27349
2023-04-27 19:14:01+00:00,259.0,0.38,237.0,0.49,13.76,47.59359,-54.27349
2023-04-27 19:24:01+00:00,223.0,1.0,223.0,1.15,13.76,47.59359,-54.27349
2023-04-27 19:34:01+00:00,233.0,1.41,242.0,1.67,13.76,47.59359,-54.27349
2023-04-27 19:44:01+00:00,247.0,2.14,248.0,2.28,13.76,47.59359,-54.27349
2023-04-27 19:54:01+00:00,218.0,1.9,218.0,2.13,13.76,47.59359,-54.27349
2023-04-27 20:04:01+00:00,207.0,0.94,209.0,1.02,13.76,47.59359,-54.27349
2023-04-27 20:14:00+00:00,227.0,4.02,230.0,4.37,13.76,47.59359,-54.27349
2023-04-27 20:24:00+00:00,227.0,3.53,229.0,4.12,13.76,47.59359,-54.27349
2023-04-27 20:34:00+00:00,214.0,4.2,214.0,4.45,13.76,47.59359,-54.27349
2023-04-27 20:44:00+00:00,219.0,4.98,220.0,5.52,13.76,47.59359,-54.27349
2023-04-27 20:54:00+00:00,224.0,3.98,223.0,4.48,13.76,47.59359,-54.27349
2023-04-27 21:04:00+00:00,217.0,4.95,217.0,5.41,13.76,47.59359,-54.27349
2023-04-27 21:14:01+00:00,226.0,5.07,226.0,5.4,13.53,47.59359,-54.27349
2023-04-27 21:24:01+00:00,216.0,3.79,216.0,4.74,13.53,47.59359,-54.27349
2023-04-27 21:34:01+00:00,191.0,4.19,191.0,4.65,13.53,47.59359,-54.27349
2023-04-27 21:44:01+00:00,219.0,4.85,220.0,5.45,13.53,47.59359,-54.27349
2023-04-27 21:54:01+00:00,218.0,4.31,222.0,4.93,13.53,47.59359,-54.27349
2023-04-27 22:04:01+00:00,208.0,5.29,210.0,5.53,13.53,47.59359,-54.27349
2023-04-27 22:14:01+00:00,203.0,5.26,203.0,5.7,13.21,47.59359,-54.27349
2023-04-27 22:24:01+00:00,211.0,4.35,211.0,4.93,13.21,47.59359,-54.27349
2023-04-27 22:34:01+00:00,212.0,5.48,213.0,5.85,13.21,47.59359,-54.27349
2023-04-27 22:44:01+00:00,204.0,5.4,206.0,5.85,13.21,47.59359,-54.27349
2023-04-27 22:54:01+00:00,203.0,5.05,208.0,5.63,13.21,47.59359,-54.27349
2023-04-27 23:04:01+00:00,217.0,5.11,218.0,5.75,13.21,47.59359,-54.27349
2023-04-27 23:14:00+00:00,226.0,4.78,233.0,5.74,12.65,47.59359,-54.27349
2023-04-27 23:24:00+00:00,233.0,4.43,233.0,5.18,12.65,47.59359,-54.27349
2023-04-27 23:34:00+00:00,235.0,3.98,239.0,4.62,12.65,47.59359,-54.27349
2023-04-27 23:44:00+00:00,240.0,2.47,243.0,2.71,12.65,47.59359,-54.27349
2023-04-27 23:54:00+00:00,231.0,1.64,227.0,2.0,12.65,47.59359,-54.27349
